Moose, WY

9:45 AM MST on December 03, 2016 (GMT -0700)
Jackson Hole

Weather History for KJAC - October, 2013

Change the Weather History Date:

Thursday, October 3, 2013

  Actual Average Record
Temperature  
Mean Temperature 37 °F -  
Max Temperature 44 °F 62 °F 79 °F (1992)
Min Temperature 30 °F 26 °F 15 °F (1978)
Degree Days  
Heating Degree Days 28    
Moisture  
Dew Point 33 °F    
Average Humidity 91    
Maximum Humidity 100    
Minimum Humidity 34    
Precipitation  
Precipitation 0.20 in - - ()
Sea Level Pressure  
Sea Level Pressure 29.91 in    
Wind  
Wind Speed 5 mph (SSE)    
Max Wind Speed 21 mph    
Max Gust Speed 29 mph    
Visibility 7 miles    
Events Snow    
Averages and records for this station are not official NWS values.
T = Trace of Precipitation, MM = Missing Value Source: NWS Daily Summary

Daily Weather History Graph

Daily Weather History Graph

Search for Another Location

Airport or City:

Trip Planner

Search our weather history database for the weather conditions in past years. The results will help you decide how hot, cold, wet, or windy it might be!

Date:

Astronomy

Oct. 03, 2013 Rise Set
Actual Time 7:23 AM MDT 6:59 PM MDT
Civil Twilight 6:54 AM MDT 7:28 PM MDT
Nautical Twilight 6:21 AM MDT 8:01 PM MDT
Astronomical Twilight 5:47 AM MDT 8:34 PM MDT
Moon 5:58 AM MDT 6:10 PM MDT
Length of Visible Light 12h 33m
Length of Day
11h 36m
Waning Crescent, 2% of the Moon is Illuminated
Oct 3
Waning Crescent
Oct 4
New
Oct 11
First Quarter
Oct 18
Full
Oct 26
Last Quarter

Hourly Weather History & Observations

Time (MDT) Temp. Windchill Dew Point Humidity Pressure Visibility Wind Dir Wind Speed Gust Speed Precip Events Conditions
12:15 AM 35.6 °F 31.7 °F 35.6 °F 100% 29.91 in 10.0 mi ESE 4.6 mph - N/A   Mostly Cloudy
12:55 AM 35.6 °F - 35.6 °F 100% 29.89 in 10.0 mi Calm Calm - N/A   Overcast
1:15 AM 37.4 °F - 37.4 °F 100% 29.88 in 10.0 mi Calm Calm - N/A   Overcast
1:35 AM 37.4 °F - 35.6 °F 93% 29.88 in 10.0 mi Calm Calm - N/A   Overcast
1:55 AM 37.4 °F 33.8 °F 35.6 °F 93% 29.88 in 10.0 mi SE 4.6 mph - N/A   Overcast
2:15 AM 37.4 °F - 37.4 °F 100% 29.87 in 10.0 mi Calm Calm - N/A   Mostly Cloudy
2:35 AM 35.6 °F - 35.6 °F 100% 29.86 in 10.0 mi Calm Calm - N/A   Overcast
2:55 AM 37.4 °F - 37.4 °F 100% 29.86 in 10.0 mi Calm Calm - N/A   Overcast
3:15 AM 37.4 °F - 37.4 °F 100% 29.85 in 9.0 mi Calm Calm - N/A   Overcast
3:35 AM 37.4 °F 32.8 °F 37.4 °F 100% 29.85 in 6.0 mi ESE 5.8 mph - 0.03 in   Overcast
3:55 AM 35.6 °F 30.7 °F 35.6 °F 100% 29.84 in 10.0 mi East 5.8 mph - 0.03 in   Overcast
4:15 AM 35.6 °F 30.7 °F 35.6 °F 100% 29.82 in 10.0 mi East 5.8 mph - N/A   Overcast
4:35 AM 37.4 °F 32.8 °F 37.4 °F 100% 29.83 in 10.0 mi West 5.8 mph - N/A   Overcast
4:55 AM 35.6 °F 28.0 °F 35.6 °F 100% 29.85 in 5.0 mi West 10.4 mph - 0.02 in   Overcast
5:35 AM 35.6 °F 30.7 °F 35.6 °F 100% 29.84 in 10.0 mi SSW 5.8 mph - 0.10 in   Overcast
5:55 AM 35.6 °F 31.7 °F 33.8 °F 93% 29.84 in 10.0 mi SSW 4.6 mph - 0.10 in   Overcast
6:15 AM 35.6 °F 31.7 °F 35.6 °F 100% 29.85 in 10.0 mi SSW 4.6 mph - N/A   Overcast
6:35 AM 35.6 °F 28.6 °F 35.6 °F 100% 29.85 in 10.0 mi SE 9.2 mph - N/A   Overcast
6:52 AM 33.8 °F 26.4 °F 33.8 °F 100% 29.85 in 7.0 mi SSE 9.2 mph - N/A Snow Light Snow
7:53 AM 33.8 °F 30.8 °F 32.0 °F 93% 29.85 in 5.0 mi SSE 3.5 mph - N/A Snow Light Snow
8:52 AM 35.6 °F 31.7 °F 35.6 °F 100% 29.85 in 10.0 mi SW 4.6 mph - N/A   Overcast
9:51 AM 35.6 °F 29.9 °F 33.8 °F 93% 29.86 in 10.0 mi South 6.9 mph - N/A   Mostly Cloudy
10:56 AM 37.4 °F 29.3 °F 33.8 °F 87% 29.88 in 10.0 mi SSE 12.7 mph - N/A   Overcast
11:58 AM 42.8 °F 35.4 °F 28.4 °F 57% 29.89 in 10.0 mi SSE 15.0 mph - N/A   Mostly Cloudy
12:53 PM 42.8 °F 36.6 °F 24.8 °F 49% 29.90 in 10.0 mi South 11.5 mph 19.6 mph N/A   Overcast
1:51 PM 44.6 °F 40.2 °F 21.2 °F 39% 29.90 in 10.0 mi South 8.1 mph 16.1 mph N/A   Scattered Clouds
2:51 PM 42.8 °F 36.2 °F 15.8 °F 34% 29.91 in 10.0 mi WSW 12.7 mph 17.3 mph N/A   Mostly Cloudy
3:31 PM 41.0 °F 33.5 °F 32.0 °F 70% 29.92 in 10.0 mi North 13.8 mph 19.6 mph N/A   Mostly Cloudy
3:51 PM 37.4 °F 28.9 °F 30.2 °F 75% 29.93 in 8.0 mi North 13.8 mph 19.6 mph N/A   Mostly Cloudy
4:51 PM 33.8 °F 24.3 °F 33.8 °F 100% 29.95 in 0.8 mi NNE 13.8 mph - N/A Snow Light Snow
5:51 PM 33.8 °F 26.4 °F 32.0 °F 93% 30.00 in 1.5 mi North 9.2 mph - N/A Snow Light Snow
6:51 PM 30.2 °F 22.6 °F 30.2 °F 100% 30.01 in 1.5 mi NNE 8.1 mph - N/A Snow Light Snow
7:51 PM 30.2 °F - 30.2 °F 100% 30.02 in 3.0 mi Calm Calm - N/A Snow Light Snow
8:55 PM 30.2 °F - 30.2 °F 100% 30.02 in 3.0 mi Calm Calm - 0.01 in   Overcast
9:15 PM 30.2 °F 26.7 °F 30.2 °F 100% 30.02 in 2.0 mi SW 3.5 mph - 0.01 in   Overcast
9:35 PM 30.2 °F - 30.2 °F 100% 30.02 in 3.0 mi Calm Calm - 0.01 in   Overcast
10:35 PM 30.2 °F 18.9 °F 30.2 °F 100% 30.03 in 1.8 mi North 16.1 mph - 0.02 in   Overcast
10:55 PM 30.2 °F 17.4 °F 28.4 °F 93% 30.03 in 2.5 mi North 20.7 mph 28.8 mph 0.02 in   Overcast
11:15 PM 30.2 °F 18.9 °F 28.4 °F 93% 30.02 in 2.0 mi North 16.1 mph - N/A   Overcast
11:35 PM 30.2 °F 19.3 °F 30.2 °F 100% 30.02 in 3.0 mi North 15.0 mph 19.6 mph N/A   Mostly Cloudy
11:55 PM 30.2 °F 18.5 °F 28.4 °F 93% 30.03 in 8.0 mi North 17.3 mph 24.2 mph 0.01 in   Overcast